Regional Weather Roundup
Issued by NWS

Home | Current Version | Previous Version | Text Only | Print | Product List | Glossary On
Versions: 1 2 3 4 5 6 7 8 9 10 11 12 13 14 15 16 17 18 19 20 21 22 23 24 25 26 27 28 29 30 31 32 33 34 35 36 37 38 39 40 41 42 43 44 45 46 47 48 49 50
000
ASUS43 KMKX 300821
RWRWI

WISCONSIN REGIONAL WEATHER ROUNDUP
NATIONAL WEATHER SERVICE MILWAUKEE/SULLIVAN WI
300 AM CDT FRI SEP 30 2016

NOTE: "FAIR" INDICATES FEW OR NO CLOUDS BELOW 12,000 FEET WITH NO
SIGNIFICANT WEATHER AND/OR OBSTRUCTIONS TO VISIBILITY.

WIZ001-002-006>008-014>016-023>028-300900-
NORTHWEST WISCONSIN

CITY           SKY/WX    TMP DP  RH WIND       PRES   REMARKS
SUPERIOR ARPT  CLOUDY    54  52  94 E5        30.45S
ASHLAND        CLOUDY    53  52  96 E3        30.45S
HAYWARD        CLOUDY    51  49  92 NE7       30.43S
SIREN          CLOUDY    52  51  96 E3        30.42S
CUMBERLAND     CLEAR     46  46 100 NE3       30.41S FOG
RICE LAKE      CLEAR     48  47  95 CALM      30.42S FOG
CHETEK         NOT AVBL
LADYSMITH      CLEAR     48  47  96 CALM      30.43R FOG
EAU CLAIRE     CLEAR     51  50  96 NE5       30.38S
MENOMONIE      CLEAR     50  49  95 CALM      30.39S
NEW RICHMOND   CLEAR     50  50  99 NE5       30.40R
OSCEOLA        CLEAR     48  48 100 CALM      30.42S
$$

WIZ003>005-009-010-017-018-300900-
NORTH CENTRAL WISCONSIN

CITY           SKY/WX    TMP DP  RH WIND       PRES   REMARKS
MANITOWISH WTR NOT AVBL
ARBOR VITAE    CLEAR     49  47  95 CALM      30.42S
WOODRUFF       CLEAR     49  47  95 CALM      30.42S
RHINELANDER    CLEAR     46  46 100 CALM      30.41S
EAGLE RIVER    CLEAR     44  44 100 CALM      30.41S FOG
LAND O LAKES   CLOUDY    47  47 100 NE3       30.44S FOG
PHILLIPS       FOG       48  48 100 N3        30.41S VSB 1
TOMAHAWK       FOG       42  41  97 CALM      30.41S VSB 1/4
MEDFORD        CLEAR    N/A N/A N/A N6        30.38F
MERRILL        CLEAR     46  46 100 CALM      30.39F
$$

WIZ029-030-035-036-043>047-300900-
CENTRAL WISCONSIN

CITY           SKY/WX    TMP DP  RH WIND       PRES   REMARKS
WAUSAU         CLEAR     51  48  89 CALM      30.36S
MOSINEE        CLEAR     50  48  93 N10       30.37S
MARSHFIELD     CLEAR     53  48  83 NE8       30.35F
STEVENS POINT  CLEAR     49  48  98 N6        30.35S
WAUPACA        CLEAR     55  53  92 N6        30.32F
WAUTOMA        CLOUDY    55  52  89 N7        30.31F
WISC RAPIDS    CLEAR     52  50  93 N9        30.35S
CAMP DOUGLAS   CLEAR     48  47  97 NW6       30.32F
$$

WIZ011>013-019>022-031-037>040-048>050-300900-
NORTHEAST WISCONSIN

CITY           SKY/WX    TMP DP  RH WIND       PRES   REMARKS
ANTIGO         CLEAR     46  45  97 CALM      30.38S
SHAWANO        CLEAR     56  51  86 N8        30.33F
OCONTO         NOT AVBL
STURGEON BAY   CLOUDY    59  56  89 NE8       30.32F
GREEN BAY      CLOUDY    56  55  97 N13       30.30F
MANITOWOC      CLOUDY    61  56  83 N6        30.28F
APPLETON       CLOUDY    54  54 100 NE13      30.29S
CLINTONVILLE   PTCLDY    54  50  87 N7        30.33F
OSHKOSH        CLOUDY    58  55  90 N15       30.28F
$$

WIZ032>034-041-042-053>061-300900-
SOUTHWEST WISCONSIN

CITY           SKY/WX    TMP DP  RH WIND       PRES   REMARKS
LA CROSSE      CLEAR     54  51  90 N7        30.34S
SPARTA         CLEAR     46  46 100 CALM      30.35S
VIROQUA        MOCLDY    54  52  92 NE7       30.32S
BOSCOBEL       MOCLDY    56  51  84 VRB3      30.30S
PRAIRIE DU CHI CLEAR     53  48  83 CALM      30.29F
PLATTEVILLE    CLEAR     55  53  94 N8        30.26F
$$

WIZ056-057-062-063-064-067-068-300900-
SOUTH CENTRAL WISCONSIN

CITY           SKY/WX    TMP DP  RH WIND       PRES   REMARKS
REEDSBURG      NOT AVBL
BARABOO/DELLS  CLOUDY    57  52  82 NE9       30.29F
LONE ROCK      CLOUDY    59  52  77 N8        30.29F
MINERAL POINT  PTCLDY    54  52  94 N7        30.28S
MADISON        CLOUDY    58  54  86 N10       30.25F
MIDDLETON      CLOUDY    59  55  87 N8        30.25F
WATERTOWN      CLOUDY    59  56  89 NE6       30.23F
MONROE         CLOUDY    55  54  94 N13       30.23F
JANESVILLE     CLOUDY    59  57  94 NE7       30.21S
$$

WIZ051-052-058>065-066-070>072-300900-
SOUTHEAST WISCONSIN

CITY           SKY/WX    TMP DP  RH WIND       PRES   REMARKS
MILWAUKEE      CLOUDY    60  55  83 NE10      30.22F
WAUKESHA       CLOUDY    57  54  88 NE10G17   30.24R
MILWAUKEE/TIMM CLOUDY    59  52  77 NE13      30.23S
RACINE         CLOUDY    61  56  83 NE13      30.22S
BURLINGTON     CLOUDY    58  54  85 NE8       30.21S
KENOSHA        CLOUDY    61  57  87 NE12      30.20R
FOND DU LAC    CLOUDY    60  56  86 NE15      30.26F
SHEBOYGAN      CLOUDY    60  55  83 NE14      30.25F
WEST BEND      CLOUDY    66  63  88 NE9G17    30.25S
JUNEAU         CLOUDY    59  54  84 N14       30.26F
$$

LSZ147-162-300900-
LAKE SUPERIOR

STATION/POSITION TIME  TEMP    WIND        PRES    WAVE
                       AIR SEA DIR/SP/G            HT/PER
                 (UTC) (F)     (DEG/KT/KT) (MB)    (FT/S)
W MID LAKE BUOY  0750   56 56   70/  6/ 10 1031.2R   2/ 5
DEVILS ISLAND    0800   53      60/  6/  8 1031.8S
SAXON HARBOR     0740   53     150/  4/  5 1030.5S
$$

LMZ867-665-643>646-300900-
LAKE MICHIGAN

STATION/POSITION TIME  TEMP    WIND        PRES    WAVE
                       AIR SEA DIR/SP/G            HT/PER
                 (UTC) (F)     (DEG/KT/KT) (MB)    (FT/S)
CHAMBERS ISLAND  0700   61      10/ 17/ 19 1027.1F
S GREEN BAY BUOY 0800   58 62   20/ 16/ 17 1025.8F
N MID LAKE BUOY  0750   64 65   70/ 16/ 19 1026.2F   3/ 4
NORTHPORT PIER   0700   61      20/  7/ 11 1027.4F
SISTER BAY       0708   59      20/  7/ 10   N/A
KEWAUNEE LAKESHO 0700   62      50/ 12/ 16 1025.4F
SHEBOYGAN LAKESH 0800   61      30/ 16/ 17 1024.2F
PORT WASHINGTON  0600   60      50/ 12/ 18 1025.7F
ATWATER BUOY     0800   56 53   20/ 12/ 16 1023.2F
MILWAUKEE LAKESH 0710   59      10/ 11/ 13   N/A
S MID LAKE BUOY  0750   63 68   60/ 21/ 23 1021.3F   5/ 7
KENOSHA   LAKESH 0800   62      50/ 19/ 26 1022.0S
$$

TC  - TEMPERATURE IN CELSIUS
VSB - VISIBILITY IN STATUTE MILES
WCI - WIND CHILL INDEX
HX  - HEAT INDEX




USA.gov is the U.S. government's official web portal to all federal, state and local government web resources and services.